[[{"header":{"parameterUnit":"m.s-1","parameterCategory":1,"la1":30.2991,"la2":30.254,"lo1":-89.0895,"lo2":-89.0444,"dy":0.0017,"dx":0.0017,"nx":28,"ny":28,"refTime":"2024-07-01T09:00:00:Z","depth":0,"parameterNumber":2,"parameterNumberName":"U-component_of_WINDS"},"data":[0,0,0,0,0,0,0,0,0,0,0,0,0,0,0,0,0,0,0,0,0,0,0,0,0,0,0,0,0,0,0,0,0,0,0,0,0,0,0,0,0,0,0,0,0,0,0,0,0,0,0,0,0,0,0,0,0,0,-1.762,-1.7621,0,-1.7704,-1.7705,-1.7706,-1.7782,-1.7783,-1.7784,-1.7785,-1.7869,-1.7871,-1.7872,0,0,0,0,0,0,0,0,0,0,0,0,0,-1.7526,-1.7528,-1.762,-1.7621,-1.7622,-1.7704,-1.7705,-1.7706,-1.7782,-1.7783,-1.7784,-1.7785,-1.7869,-1.7871,-1.7872,0,0,0,0,0,0,0,0,0,0,0,0,0,-1.7584,-1.7528,-1.7619,-1.767,-1.7675,-1.7703,-1.7705,-1.7706,-1.7782,-1.7783,-1.7785,-1.7786,-1.7868,-1.787,-1.7873,-1.7858,0,0,-1.7879,-1.788,0,0,0,0,0,0,0,0,-1.7581,-1.7587,-1.7661,-1.7666,-1.7672,-1.7734,-1.7703,-1.7757,-1.7781,-1.7741,-1.7785,-1.7787,-1.7823,-1.7829,-1.7842,-1.7861,-1.7865,-1.7879,-1.788,-1.7881,-1.7882,0,0,0,0,0,0,0,-1.7577,-1.7584,-1.7653,-1.7662,-1.7669,-1.7688,-1.7698,-1.7714,-1.7773,-1.7745,-1.7751,-1.776,-1.7826,-1.7839,-1.7844,-1.7866,-1.7879,-1.7881,-1.7882,-1.7883,-1.7881,-1.788,0,0,0,0,0,0,-1.7565,-1.758,-1.765,-1.7655,-1.7629,-1.7689,-1.77,-1.7713,-1.7773,-1.7784,-1.7758,-1.7763,-1.7835,-1.7842,-1.7847,-1.7835,-1.7881,-1.7883,-1.7884,-1.7883,-1.7881,-1.788,0,0,0,0,0,0,-1.7563,-1.757,-1.7647,-1.762,-1.7631,-1.7689,-1.7703,-1.7714,-1.7727,-1.7784,-1.7795,-1.776,-1.7837,-1.7845,-1.7855,-1.7839,-1.7884,-1.7886,-1.7884,-1.7882,-1.788,-1.7809,0,0,0,0,0,0,-1.756,-1.7569,-1.7563,-1.7619,-1.7632,-1.7652,-1.7702,-1.7714,-1.773,-1.7737,-1.7789,-1.7798,-1.7838,-1.7852,-1.7857,-1.7843,-1.7888,-1.7886,-1.7883,-1.7881,-1.7813,-1.7805,-1.7798,0,0,0,0,0,-1.7556,-1.7539,-1.7563,-1.7571,-1.7626,-1.7651,-1.7659,-1.7705,-1.7729,-1.7724,-1.7761,-1.7797,-1.7841,-1.7852,-1.7859,-1.7845,-1.7887,-1.7884,-1.7881,-1.7817,-1.7807,-1.7798,0,0,0,0,0,0,-1.7478,-1.7547,-1.7574,-1.7574,-1.7607,-1.7664,-1.7659,-1.7693,-1.7719,-1.7724,-1.778,-1.7791,-1.7796,-1.7822,-1.7834,-1.7835,-1.7869,-1.7867,-1.7817,-1.7808,-1.7801,-1.7794,-1.7889,0,0,0,0,0,-1.7462,-1.7476,-1.7536,-1.7531,-1.7546,-1.7599,-1.7612,-1.7646,-1.7681,-1.7695,-1.7733,-1.7765,-1.7787,-1.78,-1.7822,-1.7819,-1.7831,-1.7813,-1.7805,-1.7799,-1.7796,-1.7798,-1.779,-1.787,-1.787,-1.787,0,0,-1.7426,-1.7466,-1.7471,-1.7516,-1.7545,-1.7559,-1.761,-1.7623,-1.7634,-1.7697,-1.7709,-1.7738,-1.7779,-1.7783,-1.7786,-1.7805,-1.7777,-1.7795,-1.7789,-1.779,-1.7794,-1.7786,-1.7779,-1.7868,-1.7868,-1.7869,0,0,-1.7369,-1.7401,-1.74,-1.7429,-1.7473,-1.751,-1.751,-1.7563,-1.7586,-1.76,-1.7648,-1.7663,-1.7698,-1.7726,-1.7744,-1.7702,-1.7737,-1.7709,-1.7668,-1.7669,-1.7663,-1.7657,-1.7643,-1.7637,-1.7706,-1.7706,-1.7706,0,-1.7319,-1.7343,-1.7396,-1.7406,-1.7425,-1.7485,-1.7486,-1.7511,-1.756,-1.7571,-1.7592,-1.764,-1.7671,-1.7683,-1.7673,-1.7686,-1.7689,-1.7701,-1.766,-1.7655,-1.7651,-1.7637,-1.7631,-1.7702,-1.7703,-1.7703,-1.7703,0,-1.728,-1.7296,-1.7291,-1.7338,-1.7357,-1.7362,-1.7417,-1.7429,-1.7463,-1.7498,-1.7512,-1.7553,-1.7586,-1.7592,-1.7624,-1.7609,-1.7619,-1.7649,-1.7683,-1.7638,-1.7627,-1.7622,-1.7697,-1.7698,-1.7699,-1.77,0,0,-1.7172,-1.7252,-1.7249,-1.7272,-1.7327,-1.734,-1.735,-1.7384,-1.7394,-1.7427,-1.7436,-1.7467,-1.7496,-1.7517,-1.7553,-1.7554,-1.752,-1.7584,-1.7586,-1.757,-1.7507,-1.7483,-1.7477,-1.7544,-1.7543,-1.7543,-1.7504,0,-1.7124,-1.7144,-1.7194,-1.7199,-1.7215,-1.7274,-1.7283,-1.7318,-1.7352,-1.7371,-1.7409,-1.743,-1.7466,-1.7479,-1.7484,-1.7523,-1.7507,-1.7527,-1.7553,-1.7554,-1.7539,-1.7471,-1.7445,-1.7406,-1.75,-1.7499,-1.7498,0,-1.7068,-1.7099,-1.7106,-1.7163,-1.7172,-1.7178,-1.7214,-1.7232,-1.7274,-1.7299,-1.7325,-1.7366,-1.738,-1.7414,-1.7435,-1.7447,-1.7462,-1.7484,-1.7483,-1.7486,-1.7521,-1.747,-1.7394,-1.7388,-1.7492,-1.7492,-1.7493,0,-1.6989,-1.7032,-1.7043,-1.7061,-1.7127,-1.7131,-1.7159,-1.7202,-1.722,-1.7252,-1.7265,-1.7298,-1.7316,-1.7341,-1.739,-1.741,-1.7407,-1.7444,-1.7428,-1.7426,-1.7422,-1.7421,-1.7346,-1.7434,-1.7434,-1.7434,-1.7434,0,-1.6928,-1.693,-1.7008,-1.7014,-1.7019,-1.7077,-1.708,-1.7114,-1.7153,-1.7167,-1.7221,-1.7233,-1.7299,-1.7319,-1.7358,-1.737,-1.7378,-1.7399,-1.7409,-1.7393,-1.739,-1.7402,-1.7405,-1.7432,-1.7433,-1.7433,-1.7433,0,-1.6838,-1.6891,-1.6906,-1.6969,-1.6985,-1.6986,-1.704,-1.7049,-1.7088,-1.7106,-1.7113,-1.7174,-1.7201,-1.7254,-1.7295,-1.7322,-1.7325,-1.7344,-1.7311,-1.7317,-1.7297,-1.7298,-1.7225,-1.7219,-1.7311,-1.731,-1.7309,0,-1.6795,-1.6798,-1.6863,-1.6877,-1.6903,-1.6924,-1.6944,-1.7003,-1.7021,-1.7072,-1.7074,-1.7106,-1.7134,-1.7175,-1.7223,-1.7256,-1.7275,-1.7248,-1.728,-1.7265,-1.7274,-1.7272,-1.7273,-1.7239,-1.7238,-1.7237,-1.7236,0,-1.6713,-1.674,-1.6766,-1.6802,-1.6824,-1.6855,-1.6889,-1.6897,-1.6964,-1.6982,-1.7011,-1.7033,-1.7078,-1.7108,-1.7149,-1.7179,-1.7218,-1.7226,-1.7224,-1.7207,-1.7187,-1.7197,-1.7289,-1.7227,-1.7228,-1.7228,-1.7229,-1.7229,-1.6645,-1.6651,-1.6698,-1.6726,-1.6759,-1.679,-1.6802,-1.6844,-1.6869,-1.691,-1.6944,-1.697,-1.7016,-1.7074,-1.7102,-1.7124,-1.7143,-1.714,-1.7139,-1.7137,-1.713,-1.7185,-1.7132,-1.7132,-1.7133,-1.7133,-1.7133,0,-1.6565,-1.66,-1.6625,-1.6672,-1.6694,-1.6732,-1.6773,-1.6789,-1.6811,-1.6851,-1.6879,-1.6913,-1.6945,-1.6997,-1.7033,-1.7041,-1.706,-1.7048,-1.7047,-1.7053,-1.7111,-1.7109,-1.7032,-1.7032,-1.7032,-1.7032,-1.7032,-1.7032,-1.6526,-1.6539,-1.6572,-1.6603,-1.6637,-1.6664,-1.6684,-1.6714,-1.6746,-1.6782,-1.6809,-1.6843,-1.6888,-1.6929,-1.696,-1.6975,-1.6985,-1.6967,-1.6987,-1.704,-1.7049,-1.7058,-1.7056,-1.6969,-1.6969,-1.6928,-1.6927,-1.6927]},{"header":{"parameterUnit":"m.s-1","parameterCategory":1,"la1":30.2991,"la2":30.254,"lo1":-89.0895,"lo2":-89.0444,"dy":0.0017,"dx":0.0017,"nx":28,"ny":28,"refTime":"2024-07-01T09:00:00:Z","depth":0,"parameterNumber":3,"parameterNumberName":"V-component_of_WINDS"},"data":[0,0,0,0,0,0,0,0,0,0,0,0,0,0,0,0,0,0,0,0,0,0,0,0,0,0,0,0,0,0,0,0,0,0,0,0,0,0,0,0,0,0,0,0,0,0,0,0,0,0,0,0,0,0,0,0,0,0,-0.529,-0.529,0,-0.5294,-0.5294,-0.5294,-0.5281,-0.5281,-0.528,-0.528,-0.5285,-0.5285,-0.5286,0,0,0,0,0,0,0,0,0,0,0,0,0,-0.5269,-0.5269,-0.529,-0.529,-0.529,-0.5294,-0.5294,-0.5294,-0.5281,-0.5281,-0.528,-0.528,-0.5285,-0.5285,-0.5286,0,0,0,0,0,0,0,0,0,0,0,0,0,-0.5276,-0.5269,-0.529,-0.5284,-0.5283,-0.5294,-0.5294,-0.5294,-0.5281,-0.5281,-0.528,-0.5279,-0.5284,-0.5285,-0.5286,-0.5303,0,0,-0.5288,-0.5288,0,0,0,0,0,0,0,0,-0.5276,-0.5277,-0.5284,-0.5284,-0.5284,-0.5286,-0.5289,-0.5297,-0.5281,-0.5282,-0.528,-0.5279,-0.5286,-0.5286,-0.5289,-0.5303,-0.5303,-0.5288,-0.5289,-0.5289,-0.5289,0,0,0,0,0,0,0,-0.5275,-0.5277,-0.5291,-0.5285,-0.5284,-0.5281,-0.5281,-0.529,-0.5287,-0.5282,-0.5281,-0.5282,-0.5285,-0.5288,-0.5289,-0.5303,-0.5288,-0.5289,-0.5289,-0.529,-0.5331,-0.5331,0,0,0,0,0,0,-0.5275,-0.5276,-0.5291,-0.5291,-0.5278,-0.5281,-0.5282,-0.5286,-0.5287,-0.5287,-0.5282,-0.5281,-0.5287,-0.5288,-0.5289,-0.5308,-0.5289,-0.529,-0.529,-0.533,-0.5331,-0.5332,0,0,0,0,0,0,-0.5275,-0.5277,-0.5291,-0.5284,-0.5285,-0.5282,-0.5287,-0.5286,-0.5289,-0.5287,-0.5287,-0.5285,-0.5286,-0.5288,-0.5299,-0.5308,-0.529,-0.5291,-0.5329,-0.533,-0.5331,-0.5348,0,0,0,0,0,0,-0.5274,-0.5277,-0.5284,-0.5284,-0.5286,-0.5302,-0.5288,-0.5287,-0.529,-0.5289,-0.529,-0.529,-0.5286,-0.5298,-0.53,-0.5309,-0.5291,-0.5329,-0.533,-0.5331,-0.5346,-0.5349,-0.5351,0,0,0,0,0,-0.5274,-0.5288,-0.5284,-0.5286,-0.5294,-0.5302,-0.5303,-0.5299,-0.5291,-0.5298,-0.5296,-0.529,-0.5307,-0.5299,-0.5301,-0.5311,-0.5328,-0.5329,-0.5331,-0.5345,-0.5349,-0.5351,0,0,0,0,0,0,-0.529,-0.5288,-0.5284,-0.5299,-0.5301,-0.53,-0.5308,-0.5303,-0.5307,-0.5305,-0.5299,-0.53,-0.5312,-0.5313,-0.5304,-0.5327,-0.5316,-0.5318,-0.5326,-0.5329,-0.5332,-0.5332,-0.5292,0,0,0,0,0,-0.5295,-0.5302,-0.53,-0.5313,-0.5315,-0.5311,-0.5315,-0.5311,-0.5313,-0.5314,-0.5313,-0.5315,-0.5321,-0.5325,-0.533,-0.5346,-0.5346,-0.5353,-0.5356,-0.5358,-0.536,-0.5367,-0.5371,-0.5336,-0.5336,-0.5336,0,0,-0.5306,-0.5306,-0.5311,-0.5317,-0.5318,-0.5325,-0.5312,-0.5321,-0.5326,-0.5315,-0.5326,-0.5325,-0.5327,-0.5341,-0.5347,-0.5341,-0.5369,-0.536,-0.5361,-0.5362,-0.5369,-0.5373,-0.5375,-0.5337,-0.5337,-0.5337,0,0,-0.5329,-0.533,-0.5341,-0.5342,-0.5344,-0.5341,-0.5344,-0.5344,-0.5343,-0.5354,-0.5346,-0.5351,-0.5362,-0.5363,-0.5365,-0.5388,-0.5382,-0.539,-0.5403,-0.5411,-0.5413,-0.5416,-0.5424,-0.5427,-0.5391,-0.5391,-0.5391,0,-0.5343,-0.5354,-0.5348,-0.5356,-0.5359,-0.5349,-0.536,-0.5361,-0.5364,-0.5366,-0.536,-0.5372,-0.5373,-0.5386,-0.5391,-0.5393,-0.5396,-0.539,-0.5414,-0.5416,-0.5418,-0.5426,-0.5429,-0.5392,-0.5392,-0.5392,-0.5392,0,-0.537,-0.5377,-0.5386,-0.5389,-0.5392,-0.5402,-0.5397,-0.5401,-0.5397,-0.5395,-0.5405,-0.5405,-0.541,-0.5413,-0.5408,-0.5425,-0.5422,-0.5415,-0.5404,-0.5422,-0.5429,-0.5432,-0.5394,-0.5393,-0.5393,-0.5393,0,0,-0.5405,-0.5404,-0.5407,-0.5408,-0.5408,-0.5414,-0.5422,-0.5427,-0.543,-0.5433,-0.544,-0.5448,-0.5441,-0.5443,-0.5439,-0.5445,-0.5463,-0.5437,-0.5437,-0.5442,-0.5481,-0.5487,-0.549,-0.5458,-0.5459,-0.5459,-0.5481,0,-0.5429,-0.5444,-0.5438,-0.5453,-0.546,-0.545,-0.5457,-0.5458,-0.5456,-0.5461,-0.5458,-0.5464,-0.5454,-0.5456,-0.5462,-0.546,-0.5471,-0.5458,-0.5465,-0.5465,-0.5465,-0.5494,-0.55,-0.552,-0.5483,-0.5484,-0.5484,0,-0.5458,-0.5461,-0.5477,-0.5476,-0.5478,-0.5485,-0.5488,-0.5493,-0.5493,-0.5491,-0.5493,-0.5487,-0.5495,-0.5483,-0.5494,-0.5486,-0.5488,-0.5487,-0.5488,-0.5489,-0.5476,-0.5496,-0.5527,-0.553,-0.5488,-0.5488,-0.5488,0,-0.5483,-0.549,-0.5501,-0.5502,-0.55,-0.5505,-0.5505,-0.5504,-0.5507,-0.5509,-0.5511,-0.5514,-0.5516,-0.5519,-0.5513,-0.5506,-0.5525,-0.5513,-0.5523,-0.5523,-0.5528,-0.5528,-0.5561,-0.5529,-0.5529,-0.5529,-0.5529,0,-0.551,-0.552,-0.5511,-0.5518,-0.5529,-0.5521,-0.5532,-0.5531,-0.553,-0.5536,-0.5527,-0.5533,-0.5525,-0.553,-0.5525,-0.5535,-0.5536,-0.5534,-0.5533,-0.5535,-0.5535,-0.5537,-0.5536,-0.553,-0.553,-0.553,-0.553,0,-0.5539,-0.5534,-0.5544,-0.5541,-0.5541,-0.5549,-0.5546,-0.5552,-0.5548,-0.5556,-0.5557,-0.5552,-0.5557,-0.5551,-0.5556,-0.5553,-0.5566,-0.5562,-0.5566,-0.5565,-0.5575,-0.5574,-0.561,-0.5614,-0.558,-0.558,-0.5581,0,-0.5557,-0.5565,-0.5562,-0.5565,-0.5565,-0.557,-0.5572,-0.5565,-0.5568,-0.5568,-0.5573,-0.5577,-0.558,-0.5588,-0.5585,-0.5588,-0.5585,-0.5597,-0.5585,-0.5587,-0.5585,-0.5585,-0.5585,-0.56,-0.56,-0.56,-0.5601,0,-0.5589,-0.5586,-0.559,-0.5592,-0.5595,-0.5597,-0.5598,-0.5601,-0.5593,-0.5596,-0.5601,-0.5603,-0.5607,-0.5611,-0.5613,-0.5612,-0.5605,-0.5604,-0.5607,-0.5609,-0.5611,-0.561,-0.5573,-0.5604,-0.5603,-0.5603,-0.5603,-0.5603,-0.5614,-0.562,-0.5618,-0.5623,-0.5622,-0.5623,-0.5628,-0.5625,-0.5628,-0.5631,-0.5626,-0.5632,-0.5631,-0.5633,-0.5633,-0.5637,-0.5632,-0.5635,-0.5636,-0.5637,-0.5639,-0.561,-0.5637,-0.5637,-0.5637,-0.5637,-0.5637,0,-0.5646,-0.5644,-0.5648,-0.5649,-0.5652,-0.5644,-0.5645,-0.5648,-0.5653,-0.5652,-0.5655,-0.566,-0.5663,-0.566,-0.5662,-0.5666,-0.5663,-0.5667,-0.5667,-0.5667,-0.5644,-0.5641,-0.567,-0.567,-0.567,-0.567,-0.567,-0.567,-0.5663,-0.5672,-0.5668,-0.5677,-0.5675,-0.5681,-0.5681,-0.5682,-0.5681,-0.5687,-0.569,-0.5687,-0.5685,-0.5687,-0.569,-0.5689,-0.569,-0.5696,-0.5693,-0.5672,-0.5669,-0.5666,-0.5663,-0.5696,-0.5696,-0.5716,-0.5717,-0.5717]}]]